Location: Capelle
(50.3413°N, 1.9974°E)
Time: 23:50:06
(UTC+00:00)

MOS 1 Rocket - Pass Details

Date: 12 January 2026
Orbit: 608 x 815 km, 97.4° (Epoch: 17 February)

Event Time Altitude Azimuth Distance (km) Brightness Sun altitude
Rises 16:59:24 0° 155° (SSE) 3,322 6.8 -7.3°
Reaches altitude 10° 17:01:47 10° 153° (SSE) 2,384 6.0 -7.6°
Maximum altitude 17:07:02 65° 72° (ENE) 868 3.6 -8.4°
Drops below altitude 10° 17:12:06 10° 352° (N) 2,309 5.8 -9.1°
Sets 17:14:22 0° 350° (N) 3,210 6.6 -9.5°
